DELTA 1 DEB, 2888

Orbit data source: Space-Track

DELTA 1 DEB, 2888 is space debris in LEO originally from a launch on Sat, 06 Nov 1965 UTC launched from the Air Force Eastern Test Range (AFETR). Debris objects in space refer to the collection of defunct objects orbiting the Earth. Examples of debris include non-operational satellites, rocket bodies, and fragments generated from explosions, collisions, or faulty payload assembly.

Loading next visibility...
DELTA 1 DEB details
Identifier
2888, 1965-089D
Orbit
LEO
Last TLE update1 week ago
Origin
Flag of USGSFC (US)
ManufacturerUnknown
MissionSpacecraft
Bus & MotorUnknown
MassUnknown
Launch date (UTC)
1965-11-06 (59 years ago)
Launch vehicleUnknown
Launch site
Air Force Eastern Test Range (AFETR)
Object type
Payload
Rocket body
Debris
Shape & HBRUnknown
Radar Cross SectionSmall (<0.1 m²)

Expand to show TLE details & history

TLE from 1 week ago
0 DELTA 1 DEB
1 02888U 65089D   24349.43165884 -.00000067  00000-0  27247-4 0  9995
2 02888  59.2024 132.2806 0715453 245.5783 149.3050 11.87414038509206
Epoch: 2024-12-14T10:21Z
Definitive object data (Epoch: 2024-12-14T10:21:35.323Z)
Latitude32.60846°
Longitude-84.3894°
Altitude2,249.567 km
Speed6.585 km/s
True Right ascension10h 18m 21s
True Declination32° 28' 46"
Sunlit
Object was in daylight at TLE epoch
Visualization TLE readout
Latitude-59.03871°
Longitude138.7759°
Altitude1,195.988 km
Speed7.504 km/s
Apparent Right ascension00h 45m 50s
Apparent Declination-50° 16' 22"
Sunlit
Object is in daylight
Visualization observer readout
Local Sidereal Time12:25:46
Azimuth197.123° SSW
Elevation-79.061°
Doppler factor1
Orbital elements
Apogee altitude2,317.738 km
Perigee altitude1,156.52 km
Semi-major axis8,115.266 km
Eccentricity0.0715453
Inclination59.2024°
RAAN132.2806°
Arg. of periapsis245.5783°
True anomaly153.1875°
Mean anomaly149.305°
Eccentric anomaly151.27511°
Mean motion2.96886 °/min
BSTAR0.000027247
Orbital period121.26 mins
Loading maneuver chart data...
Loading historical data...
Loading historical data...
Loading historical data...
Loading historical data...
Loading historical data...
Loading historical data...
Loading historical data...

DELTA 1 DEB Visibility forecast

Observer location: undefined°, undefined

Span
Click to sort rows by Start time (UTC) header in descending order
Start Az.
Max El. time (UTC)
Max El. Az.
Max El.
End time (UTC)
End Az.
22 mins2024-12-21 14:14:49.451Z295.756° NW2024-12-21 14:25:49.451Z352.605° N28.158°2024-12-21 14:36:49.451Z53.921° ENE
21 mins2024-12-21 16:26:49.451Z321.658° NNW2024-12-21 16:37:49.451Z29.863° NE33.443°2024-12-21 16:47:49.451Z92.698° ESE
21 mins2024-12-21 18:34:49.451Z318.859° NNW2024-12-21 18:45:49.451Z241.782° WSW44.972°2024-12-21 18:55:49.451Z144.339° SSE
14 mins2024-12-21 20:43:49.451Z295.257° NW2024-12-21 20:50:49.451Z253.826° W22.009°2024-12-21 20:57:49.451Z208.082° SW
17 mins2024-12-22 08:10:49.451Z150.094° SSE2024-12-22 08:18:49.451Z103.313° ESE23.778°2024-12-22 08:27:49.451Z58.801° ENE
24 mins2024-12-22 10:12:49.451Z213.357° SW2024-12-22 10:23:49.451Z106.321° ESE44.89°2024-12-22 10:36:49.451Z41.537° NE
22 mins2024-12-22 12:21:49.451Z267.058° W2024-12-22 12:31:49.451Z327.767° NNW34.793°2024-12-22 12:43:49.451Z39.702° NE
|